AirNav   Pilot Hours Calculator
 
 1441 users online  

U08 Perkins Field Airport
Overton, Nevada, USA

GOING TO OVERTON?


FAA INFORMATION EFFECTIVE 31 JANUARY 2019

Location

FAA Identifier: U08
Lat/Long: 36-34-05.2000N / 114-26-36.0000W
36-34.086667N / 114-26.600000W
36.5681111 / -114.4433333
(estimated)
Elevation: 1365.9 ft. / 416.3 m (surveyed)
Variation: 14E (1985)
From city: 2 miles N of OVERTON, NV
Time zone: UTC -8 (UTC -7 during Daylight Saving Time)
Zip code: 89021

Airport Operations

Airport use: Open to the public
Activation date: 06/1948
Control tower: no
ARTCC: LOS ANGELES CENTER
FSS: RENO FLIGHT SERVICE STATION
NOTAMs facility: RNO (NOTAM-D service available)
Attendance: THUR-MON DAYLIGHT HOURS
TUE & WED SVC AVBL ON CALL (702) 397-8457.
Pattern altitude: 2165.9 ft. MSL
Wind indicator: lighted
Segmented circle: yes
Lights: ACTVT MIRLS RY 13/31 - CTAF.
Beacon: white-green (lighted land airport)
Operates sunset to sunrise.

Airport Communications

CTAF/UNICOM: 122.8

Nearby radio navigation aids

VOR radial/distance  VOR name  Freq  Var
MMMr197/14.5MORMON MESA VORTAC114.3016E
BLDr016/39.9BOULDER CITY VORTAC116.7015E

Airport Services

Fuel available: 100
Oil available: ONLY ENOUGH OIL FOR ENG NEED, NO EXTRA SALES AVAILABLE.
Parking: tiedowns
Airframe service: NONE
Powerplant service: NONE
Bottled oxygen: NONE
Bulk oxygen: NONE

Runway Information

Runway 13/31

Dimensions: 4811 x 75 ft. / 1466 x 23 m
Surface: asphalt, in good condition
Weight bearing capacity: 
Single wheel: 30.0
Runway edge lights: medium intensity
Gradient: NW
RUNWAY 13  RUNWAY 31
Latitude: 36-34.431133N36-33.741918N
Longitude: 114-26.842670W114-26.356943W
Elevation: 1365.9 ft.1348.8 ft.
Gradient: 0.4%0.4% UP
Traffic pattern: leftright
Markings: nonprecision, in fair conditionnonprecision, in fair condition
Runway end identifier lights: nono
Touchdown point: yes, no lightsyes, no lights
Obstructions: 4 ft. fence, 380 ft. from runway, 45:1 slope to clear15 ft. road, 360 ft. from runway, 10:1 slope to clear

Airport Ownership and Management from official FAA records

Ownership: Publicly-owned
Owner: CLARK COUNTY
PO BOX 11005
LAS VEGAS, NV 89111-1005
Phone (702) 261-5100
Manager: BEN CZYZEWSKI
2730 AIRPORT DRIVE STE. 101
NORTH LAS VEGAS, NV 89032
Phone 702-261-3802

Airport Operational Statistics

Aircraft based on the field: 12
Single engine airplanes: 10
Multi engine airplanes: 1
Ultralights: 1
    
Aircraft operations: avg 20/day *
49% transient general aviation
49% local general aviation
2% military
* for 12-month period ending 31 July 2018

Additional Remarks

ULTRALIGHT AND SKYDIVING ACTIVITY ONGOING ON OR NEAR THE ARPT.
SKYDIVING ACT ON/INVOF ARPT DLY SR-SS.

Instrument Procedures

There are no published instrument procedures at U08.

Some nearby airports with instrument procedures:

67L - Mesquite Airport (24 nm NE)
KLSV - Nellis Air Force Base (35 nm SW)
KVGT - North Las Vegas Airport (42 nm SW)
KBVU - Boulder City Municipal Airport (42 nm SW)
KLAS - Mc Carran International Airport (45 nm SW)
 
Loc | Ops | Rwys | IFR | FBO | Links
Com | Nav | Svcs | Stats | Notes
Area around U08 (Perkins Field Airport)
 
Road maps at: MapQuest Bing Google
 
Aerial photo
WARNING: Photo may not be current or correct
Aerial photo of U08 (Perkins Field Airport)
Photo courtesy of focalflight.com
Photo taken 09-Dec-2015
looking south.

Do you have a better or more recent aerial photo of Perkins Field Airport that you would like to share? If so, please send us your photo.

 
Sectional chart

 
Airport distance calculator
Flying to Perkins Field Airport? Find the distance to fly.

From to U08

Sunrise and sunset
Times for 20-Feb-2019
 Local
(UTC-8)
 Zulu
(UTC)
Morning civil twilight05:5513:55
Sunrise06:2114:21
Sunset17:2201:22
Evening civil twilight17:4801:48

Current date and time
Zulu (UTC)  20-Feb-2019 21:54:08
Local (UTC-8)  20-Feb-2019 13:54:08
 
METAR
KLSV 
35nm SW 
202058Z 05010KT 10SM SCT085 BKN160 08/M06 A2971 RMK AO2A SLP075 T00841058 57040 $
KBVU 
42nm SW 
202135Z AUTO 19023G28KT 10SM OVC075 09/M07 A2970 RMK AO2
KVGT 
43nm SW 
202053Z 03011KT 10SM BKN075 08/M06 A2971 RMK AO2 SLP084 T00781061 56038
KLAS 
45nm SW 
202128Z 34011G25KT 10SM SCT075 BKN150 BKN200 09/M07 A2969 RMK AO2 WSHFT 2114 T00891072
KHND 
48nm SW 
202056Z 24019KT 10SM FEW070 09/M07 A2971 RMK AO2 WSHFT 1955 SLP068 T00891072 56038 $
TAF
KLSV 
35nm SW 
201838Z 2018/2121 08009KT 9999 SCT180 BKN230 QNH2961INS TEMPO 2020/2102 18020G30KT BKN100 530009 BECMG 2101/2102 19010G15KT 9999 BKN040 OVC100 620406 QNH2957INS TEMPO 2102/2107 19015G25KT 9000 -SHRA OVC010 620109 520009 BECMG 2107/2108 VRB06KT 8000 -RA OVC020 620208 QNH2950INS TEMPO 2108/2115 6000 -RASN OVC010 620109 BECMG 2117/2118 15009KT 9999 NSW BKN020 OVC080 620208 QNH2952INS TX08/2100Z TN02/2115Z
KVGT 
43nm SW 
202003Z 2020/2118 14006KT P6SM SCT100 FM202200 17012G20KT P6SM VCSH SCT050 BKN080 FM210200 19010KT P6SM -SHRA BKN050 OVC080 FM210500 34009KT 5SM -SNRA BKN030 OVC050 FM210900 34008KT 3SM -SHSN BR SCT015 OVC030 FM211700 32007KT P6SM -SHRA SCT030 OVC050
NOTAMs
Click for the latest NOTAMs
NOTAMs are issued by the DoD/FAA and will open in a separate window not controlled by AirNav.

 

 
 

FBO, Fuel Providers, and Aircraft Ground Support

  
 Business Name 
 
 Contact 
 
 Services / Description 
 
Fuel Prices
 
Comments
  
Perkins Field 702-397-2716
[web site]
[email]
Airport management, Aviation fuel, Aircraft parking (ramp or tiedown)

More info about Perkins Field
100LL
SS $4.74 
 Updated 20-Feb-2019
 
   1 read write
SS=Self service
Update Fuel Prices
 

Would you like to see your business listed on this page?

 If your business provides an interesting product or service to pilots, flight crews, aircraft, or users of the Perkins Field Airport, you should consider listing it here.  To start the listing process, click on the button below
 
Add a business
 

Other Pages about Perkins Field Airport

Rhttp:/...
 
Update a link
 
Copyright © AirNav, LLC. All rights reserved. Privacy Policy  Contact